Location: Unspecified
(0.0000°N, 0.0000°E)
Time: 14:02:16
(UTC+00:00)

BREEZE-M R/B - Pass Details

Date: 01 November 2020
Orbit: 3083 x 63194 km, 23.7° (Epoch: 26 November)

Event Time Altitude Azimuth Distance (km) Brightness Sun altitude
Rises 20:31:55 0° 287° (WNW) 23,335 ? -40.4°
Reaches altitude 10° 21:11:28 10° 278° (W) 13,208 ? -49.6°
Maximum altitude 21:42:53 45° 204° (SSW) 4,246 ? -56.7°
Enters shadow 21:47:18 38° 167° (SSE) 4,189 ? -57.7°
Exits shadow 21:58:37 - 125° (SE) 6,936 ? -60.1°
Sets 22:01:04 0° 121° (ESE) 7,766 ? -60.7°
